When you browse on this site, cookies collect data to enhance your experience and personalize the content and advertising you see.
Visit our Privacy Policy to learn more. By continuing to use the site, you agree to this use of cookies and data.
  • In Czech Republic
  • List of Countries
  • For 7 days
  • Water Temperature
  • Weather Map
  • Weather Widgets
  • user-avatar
    Login

    Hourly Weather Puerto Parra

    Today, 15 November, Friday

    Time Temperature Precipitation Wind Pressure Humidity
    00:00 +23°C° 2.1 mm 0 mps 752 mmHg 96%
    01:00 +22°C° 0 mm 0 mps 751 mmHg 98%
    02:00 +22°C° 2.2 mm 0 mps 751 mmHg 98%
    03:00 +22°C° 2.2 mm 0 mps 751 mmHg 98%
    04:00 +22°C° 2.2 mm 0 mps 751 mmHg 98%
    05:00 +22°C° 1 mm 0 mps 751 mmHg 98%
    06:00 +22°C° 1 mm 0 mps 752 mmHg 98%
    07:00 +23°C° 0 mm 0 mps 752 mmHg 98%
    08:00 +23°C° 0.3 mm 0 mps 752 mmHg 97%
    09:00 +23°C° 0.3 mm 0 mps 752 mmHg 96%
    10:00 +24°C° 0.3 mm 0 mps 752 mmHg 95%
    11:00 +26°C° 0 mm 0 mps 751 mmHg 83%
    12:00 +29°C° 0 mm 0 mps 750 mmHg 71%
    13:00 +31°C° 0 mm 0 mps 749 mmHg 59%
    14:00 +31°C° 0 mm 0 mps 749 mmHg 60%
    15:00 +31°C° 0 mm 0 mps 748 mmHg 61%
    16:00 +30°C° 0 mm 0 mps 748 mmHg 62%
    17:00 +28°C° 0.2 mm 0 mps 749 mmHg 71%
    18:00 +26°C° 0.2 mm 0 mps 749 mmHg 79%
    19:00 +25°C° 0.2 mm 0 mps 750 mmHg 88%
    20:00 +24°C° 0.7 mm 0 mps 750 mmHg 91%
    21:00 +23°C° 0.7 mm 0 mps 751 mmHg 94%
    22:00 +23°C° 0.7 mm 0 mps 752 mmHg 97%
    23:00 +23°C° 0.9 mm 0 mps 751 mmHg 97%

    Tomorrow, 16 November, Saturday

    Time Temperature Precipitation Wind Pressure Humidity
    00:00 +22°C° 0.9 mm 0 mps 751 mmHg 98%
    01:00 +22°C° 0.9 mm 0 mps 750 mmHg 98%
    02:00 +22°C° 0.9 mm 0 mps 750 mmHg 98%
    03:00 +22°C° 0.9 mm 0 mps 750 mmHg 98%
    04:00 +22°C° 0.9 mm 0 mps 750 mmHg 99%
    05:00 +22°C° 0.7 mm 0 mps 750 mmHg 98%
    06:00 +22°C° 0.7 mm 0 mps 750 mmHg 98%
    07:00 +23°C° 0.7 mm 0 mps 751 mmHg 97%
    08:00 +25°C° 0 mm 0 mps 751 mmHg 88%
    09:00 +27°C° 0 mm 0 mps 751 mmHg 78%
    10:00 +29°C° 0 mm 0 mps 751 mmHg 68%
    11:00 +30°C° 0.1 mm 0 mps 750 mmHg 64%
    12:00 +31°C° 0.1 mm 0 mps 749 mmHg 60%
    13:00 +34°C° 0.1 mm 1 mps 748 mmHg 56%
    14:00 +34°C° 0.1 mm 1 mps 747 mmHg 59%
    15:00 +33°C° 0.1 mm 1 mps 747 mmHg 61%
    16:00 +33°C° 0.1 mm 1 mps 747 mmHg 64%
    17:00 +30°C° 0.4 mm 1 mps 747 mmHg 74%
    18:00 +26°C° 0.4 mm 0 mps 748 mmHg 84%
    19:00 +24°C° 0.4 mm 0 mps 748 mmHg 95%
    20:00 +24°C° 0.5 mm 0 mps 749 mmHg 95%
    21:00 +23°C° 0.5 mm 0 mps 750 mmHg 96%
    22:00 +23°C° 0.5 mm 0 mps 750 mmHg 97%
    23:00 +23°C° 1.6 mm 0 mps 750 mmHg 97%

    Day after tomorrow, 17 November, Sunday

    Time Temperature Precipitation Wind Pressure Humidity
    00:00 +22°C° 1.6 mm 0 mps 750 mmHg 98%
    01:00 +22°C° 1.6 mm 0 mps 749 mmHg 98%
    02:00 +22°C° 1.7 mm 0 mps 749 mmHg 98%
    03:00 +22°C° 1.7 mm 0 mps 749 mmHg 98%
    04:00 +22°C° 1.7 mm 0 mps 749 mmHg 98%
    05:00 +22°C° 1.4 mm 0 mps 749 mmHg 98%
    06:00 +22°C° 1.4 mm 0 mps 750 mmHg 98%
    07:00 +22°C° 1.4 mm 0 mps 750 mmHg 98%
    08:00 +23°C° 0.3 mm 0 mps 750 mmHg 95%
    09:00 +24°C° 0.3 mm 0 mps 750 mmHg 91%
    10:00 +25°C° 0.3 mm 0 mps 750 mmHg 88%
    11:00 +28°C° 0 mm 0 mps 749 mmHg 76%
    12:00 +30°C° 0 mm 0 mps 748 mmHg 64%
    13:00 +33°C° 0 mm 0 mps 747 mmHg 52%
    14:00 +32°C° 0 mm 0 mps 747 mmHg 55%
    15:00 +34°C° 0 mm 1 mps 746 mmHg 58%
    16:00 +33°C° 0 mm 1 mps 746 mmHg 60%
    17:00 +31°C° 0.1 mm 1 mps 747 mmHg 68%
    18:00 +29°C° 0.1 mm 1 mps 748 mmHg 77%
    19:00 +27°C° 0.1 mm 1 mps 748 mmHg 85%
    20:00 +26°C° 1.6 mm 1 mps 749 mmHg 89%
    21:00 +23°C° 1.6 mm 0 mps 750 mmHg 93%
    22:00 +23°C° 1.6 mm 0 mps 750 mmHg 97%
    23:00 +23°C° 1.9 mm 0 mps 750 mmHg 96%

    18 November, Monday

    Time Temperature Precipitation Wind Pressure Humidity
    00:00 +22°C° 1.9 mm 0 mps 750 mmHg 96%
    01:00 +22°C° 1.9 mm 0 mps 750 mmHg 96%
    02:00 +22°C° 1 mm 0 mps 750 mmHg 96%
    03:00 +22°C° 1 mm 0 mps 750 mmHg 97%
    04:00 +22°C° 1 mm 0 mps 750 mmHg 97%
    05:00 +22°C° 0.3 mm 0 mps 750 mmHg 97%
    06:00 +22°C° 0.3 mm 0 mps 750 mmHg 96%
    07:00 +23°C° 0.3 mm 0 mps 751 mmHg 96%
    08:00 +24°C° 0.4 mm 0 mps 751 mmHg 90%
    09:00 +26°C° 0.4 mm 0 mps 751 mmHg 83%
    10:00 +29°C° 0.4 mm 1 mps 751 mmHg 77%
    11:00 +31°C° 0.1 mm 1 mps 750 mmHg 70%
    12:00 +32°C° 0.1 mm 1 mps 749 mmHg 62%
    13:00 +33°C° 0.1 mm 1 mps 748 mmHg 55%
    14:00 +33°C° 0 mm 1 mps 748 mmHg 57%
    15:00 +33°C° 0 mm 1 mps 748 mmHg 59%
    16:00 +32°C° 0 mm 1 mps 747 mmHg 61%
    17:00 +30°C° 0.2 mm 1 mps 748 mmHg 71%
    18:00 +28°C° 0.2 mm 1 mps 749 mmHg 81%
    19:00 +26°C° 0.2 mm 1 mps 749 mmHg 91%
    20:00 +24°C° 1.7 mm 0 mps 750 mmHg 93%
    21:00 +23°C° 1.7 mm 0 mps 750 mmHg 95%
    22:00 +23°C° 1.7 mm 0 mps 751 mmHg 97%
    23:00 +22°C° 1.6 mm 0 mps 751 mmHg 97%

    19 November, Tuesday

    Time Temperature Precipitation Wind Pressure Humidity
    00:00 +22°C° 1.6 mm 0 mps 751 mmHg 98%
    01:00 +22°C° 1.6 mm 0 mps 750 mmHg 98%
    02:00 +22°C° 1.1 mm 0 mps 750 mmHg 98%
    03:00 +22°C° 1.1 mm 0 mps 750 mmHg 98%
    04:00 +22°C° 1.1 mm 0 mps 750 mmHg 98%
    05:00 +22°C° 0.2 mm 0 mps 751 mmHg 97%
    06:00 +22°C° 0.2 mm 0 mps 751 mmHg 97%
    07:00 +23°C° 0.2 mm 0 mps 752 mmHg 96%
    08:00 +24°C° 0.5 mm 0 mps 751 mmHg 90%
    09:00 +26°C° 0.5 mm 0 mps 751 mmHg 84%
    10:00 +28°C° 0.5 mm 0 mps 751 mmHg 78%
    11:00 +29°C° 0.1 mm 0 mps 750 mmHg 70%
    12:00 +31°C° 0.1 mm 0 mps 749 mmHg 61%
    13:00 +32°C° 0.1 mm 0 mps 749 mmHg 53%
    14:00 +32°C° 0 mm 0 mps 748 mmHg 55%
    15:00 +33°C° 0 mm 1 mps 748 mmHg 58%
    16:00 +33°C° 0 mm 1 mps 748 mmHg 60%
    17:00 +31°C° 0.1 mm 1 mps 749 mmHg 68%
    18:00 +29°C° 0.1 mm 1 mps 749 mmHg 76%
    19:00 +25°C° 0.1 mm 0 mps 750 mmHg 85%
    20:00 +24°C° 0.4 mm 0 mps 751 mmHg 88%
    21:00 +23°C° 0.4 mm 0 mps 751 mmHg 92%
    22:00 +23°C° 0.4 mm 0 mps 751 mmHg 95%
    23:00 +22°C° 1.3 mm 0 mps 751 mmHg 96%

    20 November, Wednesday

    Time Temperature Precipitation Wind Pressure Humidity
    00:00 +22°C° 1.3 mm 0 mps 751 mmHg 97%
    01:00 +22°C° 1.3 mm 0 mps 751 mmHg 98%
    02:00 +22°C° 1.5 mm 0 mps 751 mmHg 98%
    03:00 +21°C° 1.5 mm 0 mps 751 mmHg 98%
    04:00 +21°C° 1.5 mm 0 mps 751 mmHg 98%
    05:00 +22°C° 0.5 mm 0 mps 751 mmHg 98%
    06:00 +22°C° 0.5 mm 0 mps 752 mmHg 98%
    07:00 +22°C° 0.5 mm 0 mps 752 mmHg 97%
    08:00 +24°C° 0.3 mm 0 mps 752 mmHg 89%
    09:00 +26°C° 0.3 mm 0 mps 752 mmHg 81%
    10:00 +29°C° 0.3 mm 0 mps 751 mmHg 73%
    11:00 +30°C° 0.1 mm 0 mps 751 mmHg 66%
    12:00 +31°C° 0.1 mm 0 mps 750 mmHg 59%
    13:00 +33°C° 0.1 mm 0 mps 749 mmHg 52%
    14:00 +34°C° 0 mm 1 mps 748 mmHg 55%
    15:00 +33°C° 0 mm 1 mps 748 mmHg 58%
    16:00 +33°C° 0 mm 1 mps 748 mmHg 61%
    17:00 +31°C° 0.1 mm 1 mps 748 mmHg 70%
    18:00 +29°C° 0.1 mm 1 mps 749 mmHg 79%
    19:00 +27°C° 0.1 mm 1 mps 750 mmHg 88%
    20:00 +24°C° 1.7 mm 0 mps 750 mmHg 91%
    21:00 +23°C° 1.7 mm 0 mps 751 mmHg 93%
    22:00 +23°C° 1.7 mm 0 mps 751 mmHg 96%
    23:00 +22°C° 1.3 mm 0 mps 751 mmHg 96%
    Show more